Temperature
19 19 19 19 19 19 19 19 19 19 18 18 18 18 18 18 18 18 18 18 18 18 18 18 17 17 17 17 17 17 17 17 17 17 17 17 16 16 16 16 16 16 16
19 19 19 19 19 19 18 19 19 19 19 18 19 19 18 18 18 18 18 18 18 18 18 18 17 17 17 17 17 17 17 17 17 17 17 17 16 16 16 16 16 16 16
19 19 19 19 19 19 19 19 19 18 18 18 18 18 19 18 18 18 18 18 18 18 18 18 17 17 17 17 17 17 17 17 17 17 17 17 17 16 16 16 16 16 16
19 19 19 19 19 19 19 19 19 19 19 19 19 19 19 18 18 18 18 18 18 18 18 18 18 17 17 17 17 17 17 17 17 17 17 17 17 16 16 16 16 16 16
19 19 19 19 19 19 19 19 19 18 18 18 18 18 18 18 18 18 18 18 18 18 18 18 18 18 17 17 17 17 17 17 17 17 17 17 16 16 16 16 16 16 16
19 19 19 19 19 19 19 19 19 18 18 18 18 18 18 18 18 18 18 18 18 18 18 18 18 18 17 17 17 17 17 17 17 17 17 17 17 16 16 16 16 16 16
19 19 19 19 19 19 19 19 19 19 18 18 18 18 18 18 18 18 18 18 18 18 18 18 18 18 18 17 17 17 17 17 17 17 17 17 17 17 16 16 16 16 16
19 19 18 19 19 19 19 19 19 18 18 18 18 18 18 18 18 18 18 18 18 18 18 18 18 18 18 17 17 17 17 17 17 17 17 17 17 17 16 16 16 16 16
19 18 19 18 18 18 18 18 18 18 18 18 18 18 18 18 18 18 18 18 18 17 17 18 17 18 17 17 17 17 17 17 17 17 17 17 17 16 16 16 16 16 16
18 18 18 18 18 18 18 18 18 18 18 18 18 18 18 18 18 17 18 18 18 17 17 17 17 17 17 17 17 17 17 17 17 17 16 16 16 16 16 16 16 16 16
18 18 18 18 18 18 18 18 18 18 18 18 18 18 18 18 17 17 17 18 18 18 17 17 17 17 17 17 17 17 17 17 17 17 16 16 16 16 16 16 16 16 16
18 18 18 18 18 18 18 18 18 18 18 18 18 18 18 17 17 17 17 17 17 17 17 17 17 17 17 17 17 17 17 17 17 16 16 16 16 16 16 16 16 16 16
18 18 18 18 18 18 18 18 18 18 18 18 18 18 17 17 17 17 17 17 17 17 17 17 17 17 17 17 17 17 17 17 16 16 16 16 16 16 16 16 16 16 16
18 18 18 18 18 18 18 18 18 17 17 17 17 17 17 17 17 17 17 17 17 17 17 17 17 17 17 16 16 16 16 16 16 16 16 16 16 16 16 16 16 16 16
18 18 18 17 18 18 17 17 17 17 17 17 17 17 17 17 17 17 17 17 17 16 16 17 17 17 16 16 16 16 16 16 16 16 16 16 16 16 16 16 16 16 15
18 18 17 17 17 17 17 17 17 17 17 17 17 17 17 17 17 17 17 16 16 16 16 16 16 16 16 16 16 16 16 16 16 16 16 16 16 16 16 15 15 15 15
18 17 17 17 17 17 17 17 17 17 17 17 17 17 17 17 16 16 16 16 16 16 16 16 16 16 16 16 16 16 16 16 16 16 16 16 16 16 16 15 15 15 15
18 17 17 17 17 17 17 17 17 17 17 17 17 16 16 16 16 16 16 16 16 16 15 15 16 16 16 16 16 16 16 16 16 16 15 15 15 15 15 15 15 15 15
17 17 17 17 17 17 16 16 16 16 16 16 16 16 16 16 15 15 15 15 15 15 15 15 15 15 15 15 15 15 15 15 15 15 15 15 15 15 15 15 15 15 15
17 17 17 17 16 16 16 16 16 16 16 16 16 15 15 15 15 15 15 15 15 15 15 15 15 15 15 15 15 15 15 15 15 15 15 15 15 15 15 15 15 15 15
17 17 17 16 16 16 16 16 15 15 15 15 15 15 15 15 15 15 15 15 15 15 14 14 14 14 14 14 14 14 14 14 15 15 15 15 15 15 15 15 15 15 15
17 16 16 16 16 16 15 15 15 15 15 15 15 15 15 15 14 14 14 14 14 14 14 14 14 14 14 14 14 14 14 14 14 14 14 14 14 14 14 14 14 14 14
16 16 16 16 15 15 15 15 15 15 15 15 15 14 14 14 14 14 14 14 14 14 14 14 14 14 14 14 14 14 14 13 13 13 13 14 14 14 14 14 14 14 14
16 16 15 15 15 15 15 14 14 14 14 15 14 14 14 14 14 14 14 14 14 13 13 13 13 13 13 13 13 13 13 13 13 13 13 13 13 13 14 14 14 14 14
16 15 15 15 15 15 14 14 14 14 14 14 14 14 14 14 14 13 13 13 13 13 13 13 13 13 13 13 13 13 13 13 13 13 13 13 13 13 13 13 13 13 13
15 15 15 15 14 14 14 14 14 14 14 14 14 14 13 13 13 13 13 13 13 13 13 13 13 13 13 13 12 12 12 12 12 12 12 12 12 12 12 13 13 13 13
Wind_Speed
1 0 1 1 1 1 0 1 1 1 1 1 1 2 2 3 4 4 5 7 8 8 8 8 8 9 9 8 8 8 7 6 6 6 6 7 8 8 7 7 7 8 9
1 1 1 1 1 2 1 1 1 1 1 1 1 1 2 3 4 4 4 6 7 7 8 8 8 8 8 8 8 8 7 7 6 6 6 7 8 8 8 7 7 7 8
3 2 1 1 2 2 2 1 1 0 1 1 1 1 1 2 3 4 4 4 5 6 7 7 8 7 7 7 7 7 7 6 5 5 6 6 7 8 8 8 8 8 8
4 2 1 2 2 1 1 1 0 0 1 1 1 1 0 0 2 3 3 3 4 4 5 6 7 7 7 7 7 7 7 7 6 5 6 7 7 7 7 8 9 9 9
3 2 2 1 1 1 0 1 1 1 0 1 1 1 1 0 1 2 2 2 3 3 3 4 5 7 7 7 7 7 7 7 7 6 6 7 7 7 7 7 8 9 10
3 3 1 1 1 1 0 0 1 1 1 0 1 2 1 1 0 1 1 1 2 3 3 3 4 4 6 7 7 7 7 7 7 7 7 7 8 8 7 7 8 8 8
2 2 1 1 1 1 1 1 1 1 1 1 2 2 2 2 1 0 0 1 1 2 2 2 3 3 4 5 6 6 7 7 7 7 7 7 8 8 8 8 8 8 8
2 2 2 1 1 1 1 1 1 1 0 1 1 1 2 2 2 1 0 1 1 1 1 2 3 3 3 3 5 6 6 6 7 7 7 7 7 7 7 8 8 8 8
0 1 1 1 1 1 1 1 1 2 1 0 1 2 2 1 1 2 1 0 0 0 1 1 2 3 3 3 4 4 5 6 6 7 7 6 6 6 7 8 8 8 8
0 1 1 1 1 1 1 1 1 1 2 1 1 1 1 2 1 1 2 1 1 1 1 1 1 2 3 3 4 4 5 5 5 6 6 6 6 6 7 8 8 8 8
1 1 1 1 1 1 1 1 1 2 2 2 2 1 1 1 1 2 2 2 2 1 1 1 1 1 2 3 3 4 4 4 4 4 5 5 5 5 6 7 8 8 8
1 1 1 1 1 1 2 2 2 2 2 2 2 2 2 2 2 2 2 2 2 2 2 1 1 1 2 2 3 3 4 4 4 5 5 5 5 5 5 6 7 7 8
1 2 1 1 1 2 2 1 1 1 2 2 2 2 2 3 2 2 2 2 2 2 1 1 1 2 2 2 2 3 4 4 4 5 5 5 6 6 7 7 7 7 8
2 2 1 1 1 1 1 1 1 1 1 2 2 2 2 2 3 3 3 3 1 1 1 2 1 2 2 2 3 3 3 4 4 5 5 5 6 6 8 8 7 7 6
2 1 1 1 1 1 1 1 1 1 1 1 1 2 1 1 2 2 3 3 3 2 2 2 1 1 2 3 3 3 3 4 4 5 5 5 6 6 8 8 8 8 7
2 1 1 1 1 1 1 1 1 1 1 1 1 1 1 1 1 1 2 2 2 3 3 2 2 2 2 2 2 2 3 4 4 5 5 5 6 7 7 8 8 9 9
2 2 2 1 1 2 1 2 2 1 1 0 0 0 1 0 0 0 1 1 2 2 3 2 2 2 2 2 2 2 2 3 3 5 6 6 6 6 7 7 8 8 9
1 1 1 1 1 1 1 2 2 1 1 1 1 0 1 0 0 0 1 1 2 2 2 2 2 1 2 2 2 2 2 2 3 4 6 6 7 7 7 8 8 8 9
1 0 0 1 1 1 1 2 2 1 1 1 1 1 1 1 0 1 1 1 2 2 2 2 2 1 1 1 2 2 2 2 2 3 5 6 6 6 7 8 8 8 8
1 1 1 1 1 1 1 1 1 1 1 1 1 1 2 2 2 2 2 2 1 1 1 1 2 2 2 1 1 1 2 2 3 3 2 3 5 6 7 7 7 8 8
1 1 1 0 1 1 1 1 1 1 1 1 1 1 2 2 3 3 2 2 2 2 1 2 2 2 2 1 2 2 2 3 3 2 2 2 3 3 4 6 7 7 8
1 1 1 0 0 1 1 1 2 1 1 1 2 2 2 2 2 3 3 2 3 3 3 2 2 3 3 3 2 2 2 2 3 1 2 4 3 4 4 4 6 8 8
1 1 0 0 0 1 1 0 2 1 1 1 2 2 2 2 1 2 2 2 1 2 4 4 4 4 3 3 3 3 3 3 4 2 2 3 3 4 4 5 8 9 8
1 1 1 0 0 1 1 0 1 1 0 1 2 2 2 2 2 1 1 1 2 2 3 3 4 5 4 3 4 4 4 3 3 2 2 3 3 4 4 5 7 9 9
1 1 1 1 0 1 1 0 2 1 0 1 2 1 1 2 2 1 1 1 2 3 3 3 4 4 5 4 3 2 2 2 3 3 2 2 3 3 3 4 4 6 7
2 2 1 1 0 1 1 1 2 1 0 1 2 2 1 1 1 1 1 1 2 3 3 3 3 3 3 3 3 4 4 3 3 3 1 2 2 1 3 2 2 3 4
Wind_Direction
206 273 283 305 300 275 270 330 345 340 338 329 234 194 195 202 205 205 208 208 211 216 220 224 223 223 220 215 212 212 211 214 218 217 220 220 215 208 205 203 199 196 191
196 214 261 278 261 239 225 251 297 310 312 312 295 225 214 202 201 202 207 210 216 222 228 229 228 225 221 218 216 216 216 216 220 220 221 214 206 205 206 204 196 190 190
198 202 225 259 258 235 219 233 300 350 328 333 335 291 204 195 189 198 208 213 221 227 231 233 231 228 227 224 220 217 214 212 215 217 216 208 206 207 206 204 201 196 194
210 199 218 259 260 226 198 195 237 28 351 3 360 350 7 153 180 190 206 211 215 225 235 236 232 230 230 227 226 222 219 212 213 217 214 209 205 205 205 204 204 198 195
219 200 214 258 240 187 184 226 139 147 61 355 349 11 19 57 208 181 186 208 209 212 225 235 237 237 236 234 231 228 224 219 218 219 217 212 211 208 207 209 201 196 197
212 188 197 239 211 153 128 152 123 107 128 76 39 33 24 35 102 165 204 207 214 220 225 232 239 242 240 237 235 230 229 228 222 220 219 217 216 211 211 202 194 194 195
199 179 186 189 164 165 199 182 139 98 71 81 75 30 21 43 74 153 198 203 222 230 229 232 242 242 242 240 235 231 231 231 225 223 224 220 218 212 210 203 194 193 195
206 190 176 181 166 147 126 128 139 116 58 79 107 81 9 358 10 14 23 189 256 250 253 253 245 240 233 236 239 235 235 234 225 222 225 223 219 211 207 203 196 197 200
159 186 169 159 177 173 194 210 172 163 179 79 107 138 140 241 319 344 7 20 312 281 293 275 257 253 241 241 245 244 241 238 227 221 216 211 209 207 202 205 203 204 206
339 216 174 165 172 171 193 223 173 178 165 192 177 150 163 164 171 316 331 332 319 303 292 298 287 277 261 249 246 245 241 237 231 224 216 210 207 208 210 210 208 212 213
325 285 194 171 179 189 199 202 174 176 176 185 183 170 155 123 157 186 273 310 325 297 282 271 268 262 268 258 248 251 246 244 239 227 216 209 207 211 215 220 218 217 216
328 328 180 184 200 207 212 208 205 193 193 189 189 179 172 173 188 188 224 261 284 286 280 265 249 242 253 270 257 250 240 238 237 228 219 214 211 214 214 219 222 222 220
304 298 278 217 224 225 220 204 191 209 205 197 204 204 198 206 190 180 189 226 258 286 285 262 245 230 243 265 264 253 247 241 234 228 220 219 220 221 217 216 220 222 222
245 262 247 231 223 218 220 191 193 225 206 209 220 208 205 222 204 197 191 187 232 285 287 272 273 242 246 248 261 249 250 242 229 226 223 224 228 225 217 215 220 223 222
246 248 248 243 238 213 201 183 209 240 201 219 224 212 220 237 217 216 207 199 192 238 274 268 269 277 254 246 254 236 238 240 227 221 225 227 231 227 218 219 222 224 226
240 229 255 244 237 232 216 190 220 232 195 242 222 205 237 247 252 219 207 202 192 203 242 257 255 285 279 274 266 244 241 243 231 224 224 225 226 230 223 222 224 226 229
231 226 231 227 233 237 225 200 217 208 190 249 296 211 276 237 229 251 204 194 198 194 230 275 269 285 276 294 313 292 255 241 247 236 231 229 229 231 231 228 229 231 233
237 232 224 216 233 230 215 198 206 189 187 219 273 311 292 267 32 250 215 224 221 204 207 252 281 283 278 288 304 305 305 274 256 250 235 232 235 235 241 233 233 234 236
228 228 163 217 236 228 218 207 202 208 219 229 229 210 223 166 221 241 234 243 242 223 205 215 259 269 277 292 330 323 321 307 284 269 242 238 244 242 244 241 236 236 239
185 199 202 235 241 228 215 199 192 201 239 252 241 227 222 209 224 236 238 233 227 212 195 211 257 276 273 285 289 303 313 303 288 294 273 250 252 251 248 249 246 242 241
181 185 173 237 258 229 230 192 181 193 217 257 279 272 256 244 241 230 234 221 206 207 217 229 250 261 263 256 252 250 271 290 277 273 282 272 258 257 256 253 251 246 242
157 134 160 216 257 266 284 192 178 196 214 236 271 288 284 273 270 256 251 219 193 200 215 224 236 244 251 246 243 241 253 281 280 268 260 278 258 262 259 250 252 246 240
142 137 190 171 266 310 332 222 186 172 208 247 260 279 291 298 286 270 277 272 247 229 205 207 232 247 246 244 235 241 237 240 254 267 242 267 261 264 262 254 248 247 243
164 166 178 190 203 331 5 177 164 141 166 265 264 263 267 297 287 241 239 297 291 274 241 222 236 251 255 249 228 233 236 248 266 262 212 254 267 269 276 263 253 245 242
162 146 160 137 93 318 334 88 117 109 57 327 306 289 269 273 302 191 170 258 297 297 276 247 241 258 265 257 226 208 220 239 271 267 216 243 270 280 280 271 263 249 241
149 119 89 85 144 306 321 90 126 128 108 325 326 325 326 301 336 147 188 219 265 284 302 316 306 304 293 281 239 217 222 232 254 265 237 235 265 280 289 277 283 279 258
Height
1529 1530 1530 1530 1531 1531 1531 1531 1531 1531 1530 1529 1530 1530 1531 1532 1533 1533 1534 1534 1535 1535 1535 1536 1536 1537 1537 1537 1538 1538 1538 1538 1538 1537 1537 1536 1536 1539 1541 1542 1543 1545 1546
1529 1530 1531 1531 1531 1531 1531 1531 1531 1531 1531 1531 1531 1531 1532 1532 1533 1533 1534 1534 1534 1534 1535 1535 1535 1536 1536 1536 1537 1537 1537 1537 1536 1536 1535 1534 1535 1537 1539 1540 1542 1543 1545
1530 1530 1531 1531 1531 1532 1532 1532 1532 1531 1531 1531 1532 1532 1532 1532 1533 1533 1533 1534 1534 1534 1534 1534 1535 1535 1535 1535 1536 1536 1536 1536 1535 1535 1535 1535 1535 1536 1537 1538 1540 1541 1543
1530 1530 1530 1531 1531 1532 1532 1532 1532 1531 1531 1532 1532 1532 1532 1532 1532 1533 1533 1533 1533 1533 1533 1533 1534 1534 1534 1534 1535 1535 1534 1534 1534 1534 1534 1534 1534 1535 1536 1536 1538 1539 1541
1530 1530 1530 1531 1531 1531 1531 1531 1531 1531 1531 1531 1531 1531 1531 1531 1532 1532 1532 1532 1532 1533 1533 1533 1533 1533 1533 1533 1533 1533 1533 1533 1533 1533 1533 1533 1533 1534 1534 1535 1536 1537 1539
1529 1530 1530 1530 1531 1531 1531 1531 1531 1531 1531 1531 1531 1531 1531 1531 1531 1531 1531 1532 1532 1532 1532 1532 1532 1532 1532 1532 1532 1531 1531 1531 1531 1531 1531 1531 1531 1532 1533 1533 1534 1536 1538
1529 1529 1530 1530 1530 1530 1530 1530 1530 1530 1530 1530 1530 1530 1530 1530 1530 1530 1530 1531 1531 1531 1531 1531 1530 1530 1530 1530 1530 1530 1529 1529 1529 1529 1530 1530 1530 1530 1531 1532 1533 1535 1536
1528 1528 1529 1529 1529 1529 1529 1530 1530 1529 1529 1530 1529 1529 1530 1531 1530 1530 1530 1530 1530 1530 1530 1530 1529 1529 1529 1529 1528 1528 1528 1528 1528 1527 1528 1528 1528 1528 1529 1530 1532 1533 1535
1527 1527 1528 1528 1528 1528 1528 1529 1529 1529 1529 1529 1529 1529 1529 1528 1528 1529 1529 1529 1529 1529 1529 1529 1528 1528 1528 1527 1527 1527 1527 1527 1526 1526 1526 1526 1526 1526 1527 1528 1530 1532 1533
1526 1526 1526 1527 1527 1527 1527 1527 1528 1528 1528 1527 1528 1528 1528 1528 1528 1528 1528 1528 1527 1527 1527 1527 1527 1526 1526 1525 1525 1525 1525 1525 1525 1525 1525 1525 1525 1525 1526 1527 1528 1530 1531
1525 1525 1524 1525 1526 1526 1526 1526 1526 1526 1526 1526 1526 1526 1526 1526 1526 1526 1526 1526 1526 1526 1526 1525 1525 1525 1524 1524 1523 1523 1523 1523 1523 1523 1523 1524 1524 1524 1525 1526 1526 1527 1528
1523 1523 1523 1524 1524 1524 1524 1525 1525 1525 1525 1525 1525 1525 1525 1525 1524 1524 1524 1524 1524 1524 1524 1523 1523 1523 1523 1522 1522 1522 1522 1522 1521 1522 1522 1522 1522 1523 1523 1524 1525 1525 1526
1521 1521 1522 1522 1522 1522 1522 1523 1523 1523 1523 1523 1523 1522 1522 1523 1523 1523 1522 1522 1522 1522 1521 1521 1521 1521 1521 1521 1520 1520 1520 1520 1520 1520 1520 1520 1520 1520 1521 1522 1522 1523 1524
1520 1520 1520 1520 1520 1520 1520 1520 1520 1521 1521 1521 1520 1520 1520 1520 1520 1520 1520 1520 1519 1519 1519 1519 1518 1519 1519 1519 1518 1519 1518 1518 1518 1518 1518 1518 1518 1518 1518 1519 1519 1520 1521
1518 1518 1518 1518 1518 1518 1518 1518 1518 1518 1518 1518 1518 1518 1518 1518 1518 1518 1518 1518 1518 1517 1516 1516 1516 1516 1516 1516 1516 1516 1516 1516 1516 1516 1516 1515 1515 1515 1515 1516 1517 1518 1518
1516 1516 1515 1515 1515 1515 1516 1516 1515 1516 1516 1516 1515 1515 1515 1515 1515 1515 1515 1515 1515 1515 1514 1514 1514 1514 1514 1514 1514 1514 1514 1514 1514 1513 1513 1513 1513 1513 1513 1514 1514 1515 1516
1513 1513 1513 1513 1513 1513 1513 1513 1513 1513 1513 1513 1513 1513 1512 1512 1512 1512 1513 1513 1513 1512 1512 1511 1511 1511 1511 1511 1511 1511 1511 1511 1511 1511 1511 1510 1511 1511 1511 1511 1512 1512 1513
1511 1511 1510 1510 1510 1510 1510 1510 1510 1510 1510 1510 1510 1510 1510 1509 1509 1509 1510 1510 1510 1509 1509 1508 1508 1508 1508 1508 1508 1508 1508 1508 1508 1508 1508 1508 1508 1508 1508 1508 1509 1509 1510
1509 1508 1508 1508 1508 1508 1508 1508 1508 1508 1508 1507 1507 1507 1507 1507 1506 1507 1507 1507 1507 1506 1506 1506 1505 1505 1505 1505 1505 1505 1505 1505 1505 1505 1505 1505 1505 1505 1505 1505 1505 1506 1507
1506 1506 1506 1505 1505 1505 1505 1505 1505 1505 1505 1505 1505 1505 1504 1504 1504 1504 1504 1504 1504 1503 1503 1503 1503 1503 1503 1502 1502 1502 1502 1502 1502 1502 1502 1502 1502 1502 1502 1501 1501 1502 1502
1503 1503 1503 1503 1503 1503 1502 1502 1502 1502 1502 1502 1502 1502 1502 1501 1501 1501 1501 1501 1501 1501 1501 1500 1500 1500 1500 1499 1499 1499 1499 1499 1499 1499 1499 1499 1498 1498 1498 1498 1498 1498 1498
1501 1501 1501 1500 1500 1500 1500 1500 1500 1500 1500 1500 1499 1499 1499 1499 1499 1499 1499 1498 1498 1498 1498 1497 1497 1497 1496 1496 1496 1496 1496 1495 1495 1496 1495 1495 1495 1494 1494 1494 1494 1494 1494
1499 1499 1498 1498 1498 1498 1498 1497 1497 1497 1497 1497 1497 1497 1496 1496 1496 1496 1496 1496 1495 1495 1495 1495 1494 1494 1493 1493 1493 1493 1492 1492 1492 1492 1492 1491 1491 1490 1490 1490 1490 1490 1490
1496 1496 1496 1496 1496 1496 1495 1495 1495 1495 1495 1494 1494 1494 1493 1493 1493 1493 1493 1492 1492 1492 1492 1491 1491 1491 1491 1491 1490 1490 1489 1489 1489 1489 1488 1487 1487 1487 1486 1486 1486 1486 1486
1494 1494 1494 1494 1493 1493 1493 1493 1493 1492 1492 1491 1491 1491 1491 1490 1490 1490 1490 1489 1489 1489 1489 1488 1488 1487 1487 1487 1486 1486 1485 1485 1484 1484 1484 1483 1482 1482 1482 1482 1482 1482 1482
1492 1492 1492 1491 1491 1491 1491 1491 1490 1490 1489 1489 1489 1489 1488 1488 1488 1487 1487 1486 1485 1485 1485 1484 1484 1483 1483 1482 1482 1482 1482 1481 1480 1480 1480 1480 1479 1478 1477 1477 1477 1477 1477